Location: Mexico
(19.4000°N, 99.1500°W)
Time: 17:08:52
(UTC-06:00)

ISS - Pass Details

Date: 25 April 2018
Orbit: 402 x 407 km, 51.6° (Epoch: 27 April)

Event Time Altitude Azimuth Distance (km) Brightness Sun altitude
Exits shadow 05:21:03 - 187° (S) 2,147 -0.4 -12.3°
Reaches altitude 10° 05:23:11 10° 169° (S) 1,441 -1.1 -11.8°
Maximum altitude 05:25:25 17° 125° (SE) 1,079 -1.2 -11.3°
Drops below altitude 10° 05:27:40 10° 81° (E) 1,444 0.5 -10.8°
Sets 05:30:12 0° 60° (ENE) 2,305 1.9 -10.3°
